Location: Asbacherhof
(48.8543°N, 10.7903°E)
Time: 22:33:13
(UTC+00:00)

Cosmos 1455 Rocket - Pass Details

Date: 26 May 2022
Orbit: 604 x 629 km, 82.5° (Epoch: 26 June)

Event Time Altitude Azimuth Distance (km) Brightness Sun altitude
Rises 00:17:07 0° 353° (N) 2,933 7.8 -18.6°
Reaches altitude 10° 00:19:24 10° 357° (N) 2,020 6.8 -18.5°
Maximum altitude 00:23:50 61° 77° (ENE) 719 3.5 -18.3°
Enters shadow 00:26:12 26° 150° (SSE) 1,237 4.2 -18.2°
